Regional Weather Roundup
Issued by NWS Charleston, SC

Current Version | Previous Version | Graphics & Text | Print | Product List | Glossary On
Versions: 1 2 3 4 5 6 7 8 9 10 11 12 13 14 15 16 17 18 19 20 21 22 23 24 25 26 27 28 29 30 31 32 33 34 35 36 37 38 39 40 41 42 43 44 45 46 47 48 49 50
000 ASUS42 KCHS 200927 RWRCHS Regional Weather Roundup National Weather Service Charleston SC 400 AM EST TUE FEB 20 2018 NOTE: "fair" indicates few or no clouds below 12,000 feet with no significant weather and/or obstructions to visibility. Not all stations are quality controlled. Use data with caution, especially dewpoint observations. SCZ027-030-031-034>040-042>050-201000- ...Southeast South Carolina... CITY SKY/WX TMP DP RH WIND PRES REMARKS N Charleston FOG 60 60 100 CALM 30.38S VSB 1/4 Waterfront Prk N/A 61 61 100 CALM 30.23S Mount Pleasant FAIR 57 57 100 CALM 30.39S Johns Island FOG 59 59 100 CALM 30.38S VSB<1/4 Pinopolis NOT AVBL Moncks Corner FOG 61 59 94 CALM 30.39S VSB 1/4 Summerville FOG 61 61 100 CALM 30.39S VSB 1/4 Beaufort MCAS CLOUDY 59 59 100 N3 30.37S FOG Beaufort Arpt FAIR 61 61 100 NE3 30.37R FOG Hilton Head Is FAIR 63 63 100 CALM 30.37S Walterboro FOG 59 59 100 CALM 30.39R VSB 1/4 Allendale FOG 64 64 100 CALM 30.37S VSB 1 ...Southern Midlands and Pee Dee... CITY SKY/WX TMP DP RH WIND PRES REMARKS Georgetown FOG 57 55 94 CALM 30.41S VSB 3/4 Kingstree FOG 61 61 100 CALM 30.40S VSB 1/4 Orangeburg FOG 60 59 96 CALM 30.38F VSB 1/4 Barnwell DRZL/FOG 64 64 100 CALM 30.38S VSB 1/4 Aiken FOG 59 59 100 CALM 30.41S VSB 1/4 Manning HAZE 61 50 67 MISG 30.39S VSB 1/4 Columbia FOG 61 61 100 E5 30.38S VSB<1/4 Sumter FOG 61 61 100 CALM 30.37S VSB 1/4 Florence FOG 58 58 100 CALM 30.40S VSB 1/4 Myrtle Beach FOG 59 59 100 CALM 30.41S VSB 1/4 N Myrtle Beach FOG 61 61 100 CALM 30.40S VSB 1/4 $$ GAZ063-065-086>088-099>101-113>116-118-119-134>141-150-201000- ...Southeast Georgia... CITY SKY/WX TMP DP RH WIND PRES REMARKS Savannah Arpt FOG 59 59 100 CALM 30.36S VSB 1/4 Hunter AAF FAIR 59 59 100 CALM 30.33S FOG Fort Stewart FAIR 57 56 98 CALM 30.33S Statesboro FOG 62 32 32 CALM 30.37R VSB 1/4 Sylvania FOG 64 64 100 CALM 30.37S VSB 1/2 Claxton FOG 60 60 99 CALM 30.36S VSB 1/4 ...CSRA, Central and far Southeast Georgia... CITY SKY/WX TMP DP RH WIND PRES REMARKS Thomson CLOUDY 58 57 96 CALM 30.42S Augusta-Bush FOG 62 62 100 SE3 30.36S VSB 1/4 Augusta-Daniel FOG 64 63 96 SE6 30.38R VSB 1 Swainsboro FAIR 63 63 100 SE5 30.36S Vidalia FOG 61 61 100 CALM 30.35S VSB 1/4 Eastman HAZE 63 56 80 E5 30.37R VSB 1/4 Hazlehurst FAIR 65 65 100 SE3 30.33R Alma FOG 63 61 93 E3 30.33S VSB 3/4 Waycross FOG 62 59 90 E3 30.33S VSB 1/4 Jesup FAIR 61 57 88 CALM 30.34S FOG Baxley CLOUDY 61 61 100 CALM 30.34R FOG Brunswick FAIR 61 59 94 E5 30.34S FOG Saint Simons FAIR 64 64 100 E5 30.33S $$ SCZ027-028-034-036>038-045-046-048>050-GAZ119-141-201000- ...Lake and Supplemental Coastal Observations... STATION/POSITION TIME TEMP WIND PRES WAVE SWELL AIR SEA DIR/SP/G HT/PER HT/PER/DIR (UTC) (F) (DEG/KT/KT) (MB) (FT/S) (FT/S/D) Winyah Bay 0845 58 70/ 2 1029.0F Lake Murray 0830 60 80/ 2/ 3 1028.1F ACE Basin NERRS 0845 61 CALM 1028.0S Fort Pulaski 0900 62 60 110/ 2/ 3 1028.2 Sapelo Island 0900 67 130/ 5 1027.0 $$ ANZ835-935-AMZ111-154-330-350-352-354-370-450-454-472-201000- ...C-MAN and Buoy Observations... STATION/POSITION TIME TEMP WIND PRES WAVE SWELL AIR SEA DIR/SP/G HT/PER HT/PER/DIR (UTC) (F) (DEG/KT/KT) (MB) (FT/S) (FT/S/D) Buoy 41004 0910 71 68 150/ 8/ 8 1028.7 Buoy 41008 0850 62 57 80/ 6/ 6 1027.1F 3/ 9 3/ 60/ 9 Folly Beach CMAN 0900 60 30/ 4/ 5 1029.2S Capers Nearshore 0808 57 58 100/ 4/ 8 1028.6F Fripp Nearshore 0808 58 58 110/ 6 1027.1F STATION/POSITION TIME TEMP WIND PRES WAVE SWELL AIR SEA DIR/SP/G HT/PER HT/PER/DIR (UTC) (F) (DEG/KT/KT) (MB) (FT/S) (FT/S/D) 5E St. Marys GA 0900 61 N/A 3/ 6 Frying Pan Buoy 0910 70 68 130/ 6/ 6 1029.7 Buoy 41025 0910 72 72 170/ 16/ 19 1031.3 Cape Lookout NC 0900 160/ 4/ 4 1030.7S Buoy 41002 0850 72 74 110/ 12/ 14 1030.8F 5/ 6 3/100/ 6 Buoy 41010 NOT AVBL St Augustine FL 0900 66 63 100/ 7/ 7 1026.7S $$

USA.gov is the U.S. government's official web portal to all federal, state and local government web resources and services.